Regional Weather Roundup
Issued by NWS Wakefield, VA

Home | Current Version | Previous Version | Graphics & Text | Print | Product List | Glossary On
Versions: 1 2 3 4 5 6 7 8 9 10 11 12 13 14 15 16 17 18 19 20 21 22 23 24 25 26 27 28 29 30 31 32 33 34 35 36 37 38 39 40 41 42 43 44 45 46 47 48 49 50
000
ASUS41 KAKQ 300710
RWRAKQ

REGIONAL WEATHER ROUNDUP
NATIONAL WEATHER SERVICE WAKEFIELD VA
300 AM EDT TUE SEP 30 2014

Note: "fair" indicates few or no clouds below 12,000 feet with no
significant weather and/or obstructions to visibility. * = Denotes
station may not report precipitation (e.g., rain,snow,etc.),
thunder or fog.

VAZ042-051-052>054-056-300800-
NORTHERN VIRGINIA

CITY           SKY/WX    TMP DP  RH WIND       PRES   REMARKS
WASH NATIONAL  CLOUDY    68  63  84 S8        29.92F
DULLES         FOG       63  63 100 SW5       29.92F VSB 3/4
FORT BELVOIR   NOT AVBL
QUANTICO       CLOUDY    64  62  93 W6        29.92F
FREDERICKSBRG* CLOUDY    65  65 100 W3        29.91F FOG
STAFFORD*      FOG       62  62 100 CALM      29.96F VSB 1/4
WARRENTON      FOG       64  64 100 SW3       29.91F VSB 1/4
CULPEPER*      FOG       64  63  94 CALM      29.92F VSB 1/4
MANASSAS*      CLOUDY    64  64 100 SW3       29.91F
LEESBURG*      FOG       64  64 100 SW3       29.92F VSB 3/4
WINCHESTER     FOG       59  59 100 CALM      29.92S VSB 3/4
FRONT ROYAL*   SUNNY     59  55  88 S3        29.91S
LURAY*         SUNNY     57  57 100 CALM      29.93F FOG
$$

VAZ048-049-060>072-079>083-300800-
CENTRAL AND SOUTH CENTRAL VIRGINIA...AND NORTH CENTRAL NORTH CAROLINA

CITY           SKY/WX    TMP DP  RH WIND       PRES   REMARKS
RICHMOND       CLOUDY    65  63  93 CALM      29.92F FOG
CHESTERFIELD*  CLOUDY   N/A N/A N/A W5        29.94F
PETERSBURG*    FOG       63  62  97 CALM      29.93F VSB 1
HANOVER        CLOUDY    64  63  96 SW3       29.94F
TAPPAHANNOCK*  FOG       62  59  91 CALM      29.93F VSB 1
CHARLOTTSVILLE FOG       64  63  96 S5        29.92F VSB 1/4
ORANGE*        CLOUDY    63  63 100 S3        29.93F FOG
LOUISA*        CLOUDY    64  63  94 CALM      29.91F FOG
FARMVILLE*     CLOUDY    64  63  94 CALM      29.91F
CREWE*         CLOUDY    65  62  90 CALM      29.92F
FORT PICKETT*  CLOUDY    64  64  97 W3        29.93F
LUNENBURG*     CLOUDY    64  64  97 CALM      29.93F
SOUTH HILL*    FOG       64  64 100 CALM      29.98F VSB 1/4
LAWRENCEVILLE* CLOUDY    62  62 100 CALM      29.93F VSB 1/4
ROANOKE RAPIDS   N/A     61  59  94 CALM      29.93F FOG
RALEIGH        FOG       63  62  97 CALM      29.95F VSB 1/16
$$

VAZ088>098-300800-
SOUTHEAST VIRGINIA

CITY           SKY/WX    TMP DP  RH WIND       PRES   REMARKS
NORFOLK        CLOUDY    66  63  90 CALM      29.92F
VIRGINIA BEACH CLOUDY    67  63  87 CALM      29.92F
NORFOLK NAVAL  CLOUDY    67  64  90 NW3       29.93F
WEST POINT*    CLOUDY    65  63  93 CALM      29.93F
NEWPORT NEWS   CLOUDY    66  62  87 CALM      29.93F FOG
LANGLEY AFB    CLOUDY    64  64 100 CALM      29.93F
FORT EUSTIS    MOCLDY    63 N/A N/A SE1       29.91F
WILLIAMSBURG*  PTCLDY    64  64 100 CALM      29.94F
HR EXEC AP*    CLOUDY    63  61  94 NW3       29.94F
FRANKLIN*      MOCLDY    63 N/A N/A CALM      29.93F
WAKEFIELD      CLOUDY    63  60  90 CALM      29.93F FOG
$$

VAZ020-022-025-037-045-300800-
WEST CENTRAL AND SOUTHWEST VIRGINIA

CITY           SKY/WX    TMP DP  RH WIND       PRES   REMARKS
STAUNTON*      CLEAR     54  51  92 CALM      29.96S
HOT SPRINGS VA CLEAR     55  43  64 W8        30.04F
LYNCHBURG      CLOUDY    62  62 100 S6        29.95F FOG
DANVILLE       FOG       62  60  93 SW3       29.94F VSB 3/4
SOUTH BOSTON*  NOT AVBL
MARTINSVILLE   CLOUDY    64  64 100 CALM      29.97F FOG
ROANOKE        CLEAR     59  58  96 CALM      29.96F
BLACKSBURG     FOG       55  55 100 CALM      30.00F VSB 1/4
DUBLIN*        FOG       55  55 100 CALM      30.00F VSB 1/4
MARION*        FOG       54  53  96 CALM      30.03F VSB 1/4
HILLSVILLE*    FOG       56  56 100 CALM      30.00F VSB<1/4
RICHLANDS*     SUNNY     63  58  84 S3        30.01S
WISE*            N/A     59  59 100 SW3       30.02F FOG
ABINGDON*      CLOUDY    58  58 100 CALM      30.00S FOG
$$

MDZ021>025-VAZ099-100-300800-
SOUTHERN MARYLAND AND THE DELMARVA PENINSULA

CITY           SKY/WX    TMP DP  RH WIND       PRES   REMARKS
PATUXENT RIVER MOCLDY    61  60  97 CALM      29.91F FOG
BAY BRIDGE APT   N/A     66  64  94 S3        29.91F
LEONARDTOWN    CLOUDY    61  59  94 CALM      29.94F VSB 1
DOVER          CLOUDY    64  64 100 SE3       29.91F
GEORGETOWN     CLOUDY    64  61  90 S7        29.94F
EASTON         CLOUDY    65  65 100 SE3       29.95F FOG
CAMBRIDGE      CLOUDY    63  61  94 CALM      29.92F VSB 1
SALISBURY      CLOUDY    66  62  87 NW5       29.92F
OCEAN CITY     LGT RAIN N/A N/A N/A CALM      29.93F
WALLOPS ISLAND LGT RAIN  64  62  93 N5        29.93F
ACCOMACK*      CLOUDY    63  61  94 CALM      29.93F FOG
$$

NCZ012>017-030>032-300800-
EASTERN NORTH CAROLINA

CITY           SKY/WX    TMP DP  RH WIND       PRES   REMARKS
ELIZABETH CITY CLOUDY    64  62  93 CALM      29.92F
AHOSKIE*       FOG       60  60  98 CALM      29.93F VSB 1/4
EDENTON*       CLOUDY    64  62  96 N3        29.92F
CURRITUCK*     CLOUDY    65  63  91 CALM      29.93F
KILL DEVIL HLS DRIZZLE   68  67  96 N5        29.89F
MANTEO         CLOUDY    68  67  96 N6        29.91F
CAPE HATTERAS  CLOUDY    67  66  97 VRB6      29.90F
TARBORO*       FOG       63  62  97 CALM      29.93F VSB 1
GOLDSBORO      CLEAR     62  62  98 CALM      29.91S
WASHINGTON     MOCLDY    64  62  94 CALM      29.92F
GREENVILLE     CLOUDY    64  63  94 N3        29.95S
NEW BERN       MOCLDY    66  63  90 E3        29.92F
WILMINGTON     MOCLDY    65  65 100 N5        29.90F FOG
$$

VAZ048-300800-
ELSEWHERE

CITY           SKY/WX    TMP DP  RH WIND       PRES   REMARKS
HARRISBURG PA  PTCLDY    63  61  93 SE5       29.90F
BALTIMORE      CLOUDY    64  63  94 CALM      29.90F FOG
ANNAPOLIS        N/A     66  63  90 MISG      29.90F
ANDREWS AFB    FOG       63  63 100 S6        29.90F VSB 1/2
WILMINGTON DE  CLOUDY    65  63  93 CALM      29.93F FOG
PHILADELPHIA   CLOUDY    66  62  87 CALM      29.93F
WILDWOOD NJ*   CLOUDY    64  61  88 CALM      29.94F
ATLANTIC CITY  CLOUDY    64  59  83 VRB3      29.93F
HENDERSON NC   FOG       63  62  96 CALM      29.94F VSB 3/4
GREENSBORO     FOG       61  61 100 SW3       29.95F VSB 1/8
ROCKY MOUNT    FOG       63  62  97 N5        29.93F VSB 1/2
FAYETTEVILLE   FOG       60  60 100 E3        29.91F VSB 1/2
CHARLOTTE      PTCLDY    61  60  97 NW5       29.96F
$$

VAZ100-300800-
MARINE

STATION/POSITION TIME  TEMP    WIND        PRES    WAVE   SWELL
                       AIR SEA DIR/SP/G            HT/PER HT/PER
                 (UTC) (F)     (DEG/KT/KT) (MB)    (FT/S) (FT/S)
44066 TX TWR #4  0700   69 71  300/  4/  6 1013.5F   2/ 8   2/ 8
CAPE MAY NJ      0700   66 73   10/  1/  2 1012.8F
LEWES DE         0700   65 70  250/  3/  4 1013.2S
15NM E FENWICK I 0700   68 70              1013.1F   2/ 7
OCEAN-CITY-INLET 0700   65 71  340/  5/  6 1013.3F
WACHAPREAGUE VA  0700   64 73   CALM  /  2 1013.4F
THOMAS POINT MD  0700   67 71  200/  9/ 10 1013.6F
GOOSES REEF MD   0700   67     230/  8/ 10 1013.7S
COVE POINT MD    0700   65     230/  4/  5 1013.0F
SOLOMONS ISLAND  0700      72                N/A
BISHOPS HEAD MD  0700   67 71  180/  4/  6 1012.7F
PINEY POINT MD   0700          230/  5/  6   N/A
POTOMAC MD       0700   67     240/  4/  4 1012.6F
CAMBRIDGE MD     0700   64 71  170/  2/  3 1013.0F
LEWISETTA VA     0700   65 70  230/  2/  3 1012.7F
RAPPAHANNOCK LGT 0700          290/  5/  6 1013.8F
STINGRAY PT      0700   67     270/  4/  6   N/A
YORK RVR RNG VA  0700   66     320/  2/  2 1013.0F
YORKTOWN VA      0700   64 73  210/  2/  3 1013.2F
JAMESTOWN VA     0700   64      CALM  /  2   N/A
DOMINION TERM VA 0700   67     300/  5/  7 1013.6F
KIPTOPEKE VA     0700      75   30/  4/  5   N/A
CHES BAY BRIDGE  0700   67 72  310/  6/  8 1012.9F
CHESAPEAKE LGHT  0600   69     360/  9/ 10 1014.0R
WILLOUBY STN VA  0700   66     350/  6/  7 1012.2F
S CRANEY ISL VA  0700          260/  4/  6 1013.1F
CAPE HENRY BUOY  0700      73                N/A     2/15
1ST LANDING BUOY 0700   68     320/  8/ 10 1013.2S
CAPE CHARLES BUO 0700      72                N/A     2/ 8   2/ 8
OFFSHORE WE BUOY 0700      73                N/A     2/15   2/15
64NM E OF VA BCH 0700   71 72  350/ 10/ 12 1012.4F   2/ 8   2/ 8
DUCK PIER NC     0700   70 72  340/  8/  9 1012.2F
44100 DUCK FRF   0700      72                N/A     2/ 8
44056 DUCK FRF   0700                        N/A     2/ 8
OREGON INLET NC  0700   68 73  350/  6/  8 1012.5F
HATTERAS NC      0700   70 75   10/ 13/ 15 1012.7F
DIAMOND SHLS NC  0700   70     330/ 17/ 19 1011.4F   3/ 8   2/ 8
CAPE LOOKOUT NC  0600   69     360/ 10/ 11 1012.6F
$$



USA.gov is the U.S. government's official web portal to all federal, state and local government web resources and services.